DECAYED

STARLINK-1783, 46686 (Decayed)

Orbit data source: Space-Track

STARLINK-1783, 46686 was a payload satellite owned by SpaceX/Seattle (US) in LEO that was launched on Sun, 18 Oct 2020 UTC via an FALCON 9 launch vehicle from the Air Force Eastern Test Range (AFETR). Payload-class satellites include a variety of spacecraft equipped with specific instruments for various scientific and technological missions. These include communications satellites like Starlink; space stations such as the ISS; scientific satellites like the Hubble; Earth observation satellites from companies like Planet Labs, Umbra, and HawkEye 360; GPS; miniature CubeSats for education and research; and military/defense satellites.

Not visible in the next 10 days
Identifier
46686, 2020-073S
Orbit
Decayed
Last TLE update
1 year ago
Origin
Manufacturer
SpaceX/Seattle
Mission
Decayed Commercial Communications
Bus & Motor
STARLINK, Unknown motor
Mass
260 kg wet, ~248 kg dry
Launch date (UTC)
2020-10-18 (5 years ago)
Launch vehicle
FALCON 9
Launch site
Air Force Eastern Test Range (AFETR)
Object type
Payload
Rocket body
Debris
Shape & HBR
Box + 1 Pan, 8.86 m
Radar Cross Section
13.562 m², Large (>1 m²)

Expand to show TLE details & history

TLE from 1 year ago
0 STARLINK-1783
1 46686U 20073S   24160.62730618  .11860947  11933-4  45736-2 0  9992
2 46686  53.0447 211.0661 0002354 313.0057 186.0218 16.23328042201555
Epoch: 2024-06-08T15:03Z
TLE epoch observation values (Epoch: 2024-06-08T15:03:19.253Z)
Latitude
31.70518°
Longitude
-119.77469°
Altitude
214.043 km
Speed
7.782 km/s
True Right ascension
00h 14m 10s
True Declination
31° 32' 20"
Sunlit
Object was in daylight at epoch
Visualization orbit readout
Visualization observer readout
Orbital elements
Apogee altitude
212.368 km
Perigee altitude
209.266 km
Semi-major axis
6,588.954 km
Eccentricity
0.00024
Inclination
53.0447°
RAAN
211.0661°
Arg. of periapsis
313.0057°
True anomaly
Unknown
Mean anomaly
186.0218°
Eccentric anomaly
Unknown
Mean motion
4.05806 °/min
Orbital period
88.71 mins
BSTAR
0.0045736
Loading maneuver chart data...
Loading SW <> Apogee altitude chart data...

STARLINK-1783 Visibility

Observer location: undefined°, undefined°

This satellite is decayed
Span
Click to sort rows by Start time (UTC) header in descending order
Start Az.
Max El. time (UTC)
Max El. Az.
Max El.
End time (UTC)
End Az.
|